| time (UTC) | temp F | wind direction | speed MPH | gust MPH | rain 1hr in | rain 24hr in | rain mn in | humidity % | barometer mb |
| 20260505095111 | 52 | 243 | 3.0 | 8.0 | 0.00 | 0.00 | 0.00 | 87 | 1010.6 |
| 20260505094608 | 52 | 225 | 4.0 | 13.0 | 0.00 | 0.00 | 0.00 | 87 | 1010.7 |
| 20260505094104 | 52 | 268 | 4.0 | 7.0 | 0.00 | 0.00 | 0.00 | 87 | 1010.8 |
| 20260505093600 | 51 | 205 | 3.0 | 7.0 | 0.00 | 0.00 | 0.00 | 88 | 1010.7 |
| 20260505093058 | 51 | 183 | 3.0 | 12.0 | 0.00 | 0.00 | 0.00 | 88 | 1010.8 |
| 20260505092555 | 51 | 233 | 3.0 | 9.0 | 0.00 | 0.00 | 0.00 | 88 | 1010.5 |
| 20260505092054 | 51 | 238 | 3.0 | 8.0 | 0.00 | 0.00 | 0.00 | 88 | 1010.4 |
| 20260505091550 | 51 | 205 | 3.0 | 9.0 | 0.00 | 0.00 | 0.00 | 88 | 1010.7 |
| 20260505091048 | 51 | 255 | 3.0 | 9.0 | 0.00 | 0.00 | 0.00 | 88 | 1010.7 |
| 20260505090546 | 51 | 187 | 5.0 | 7.0 | 0.00 | 0.00 | 0.00 | 88 | 1010.8 |
| 20260505090044 | 51 | 196 | 4.0 | 5.0 | 0.00 | 0.00 | 0.00 | 88 | 1010.9 |
| 20260505085541 | 50 | 184 | 2.0 | 7.0 | 0.00 | 0.00 | 0.00 | 88 | 1011.0 |
| 20260505085039 | 50 | 230 | 3.0 | 5.0 | 0.00 | 0.00 | 0.00 | 88 | 1010.6 |
| 20260505084537 | 50 | 221 | 2.0 | 8.0 | 0.00 | 0.00 | 0.00 | 88 | 1010.9 |
| 20260505084035 | 50 | 194 | 0.0 | 7.0 | 0.00 | 0.00 | 0.00 | 88 | 1010.6 |
| 20260505083532 | 51 | 209 | 0.0 | 7.0 | 0.00 | 0.00 | 0.00 | 88 | 1010.7 |
| 20260505083028 | 50 | 225 | 3.0 | 4.0 | 0.00 | 0.00 | 0.00 | 88 | 1010.7 |
| 20260505082524 | 50 | 234 | 8.0 | 8.0 | 0.00 | 0.00 | 0.00 | 88 | 1010.8 |
| 20260505082021 | 51 | 250 | 4.0 | 5.0 | 0.00 | 0.00 | 0.00 | 88 | 1010.9 |
| 20260505081517 | 51 | 213 | 4.0 | 6.0 | 0.00 | 0.00 | 0.00 | 88 | 1010.6 |
| 20260505081015 | 51 | 210 | 3.0 | 10.0 | 0.00 | 0.00 | 0.00 | 88 | 1010.7 |
| 20260505080511 | 51 | 213 | 3.0 | 9.0 | 0.00 | 0.00 | 0.00 | 88 | 1011.0 |
| 20260505080007 | 51 | 190 | 3.0 | 9.0 | 0.00 | 0.00 | 0.00 | 87 | 1010.9 |
| 20260505075503 | 51 | 219 | 3.0 | 8.0 | 0.00 | 0.00 | 0.00 | 87 | 1010.7 |
| 20260505075000 | 51 | 191 | 3.0 | 6.0 | 0.00 | 0.00 | 0.00 | 87 | 1010.8 |
| 20260505074458 | 51 | 231 | 5.0 | 5.0 | 0.00 | 0.00 | 0.00 | 87 | 1011.1 |
| 20260505073955 | 51 | 201 | 0.0 | 7.0 | 0.00 | 0.00 | 0.00 | 87 | 1011.0 |
| 20260505073452 | 51 | 213 | 5.0 | 6.0 | 0.00 | 0.00 | 0.00 | 87 | 1010.9 |
| 20260505072949 | 51 | 262 | 4.0 | 5.0 | 0.00 | 0.00 | 0.00 | 87 | 1011.0 |
| 20260505072445 | 51 | 180 | 0.0 | 8.0 | 0.00 | 0.00 | 0.00 | 87 | 1010.9 |
| 20260505071942 | 51 | 234 | 3.0 | 7.0 | 0.00 | 0.00 | 0.00 | 86 | 1010.9 |
| 20260505071438 | 51 | 235 | 2.0 | 7.0 | 0.00 | 0.00 | 0.00 | 86 | 1010.9 |
| 20260505070936 | 51 | 261 | 2.0 | 6.0 | 0.00 | 0.00 | 0.00 | 86 | 1010.8 |
| 20260505070432 | 52 | 221 | 4.0 | 10.0 | 0.00 | 0.00 | 0.00 | 85 | 1010.9 |
| 20260505065928 | 52 | 240 | 4.0 | 5.0 | 0.00 | 0.00 | 0.00 | 85 | 1011.0 |
| 20260505065425 | 52 | 209 | 5.0 | 7.0 | 0.00 | 0.00 | 0.00 | 85 | 1011.1 |
| 20260505064921 | 52 | 246 | 3.0 | 13.0 | 0.00 | 0.00 | 0.00 | 84 | 1011.1 |
| 20260505064419 | 52 | 212 | 3.0 | 7.0 | 0.00 | 0.00 | 0.00 | 84 | 1011.0 |
| 20260505063917 | 52 | 208 | 10.0 | 10.0 | 0.00 | 0.00 | 0.00 | 84 | 1010.8 |
| 20260505063413 | 52 | 237 | 4.0 | 9.0 | 0.00 | 0.00 | 0.00 | 84 | 1011.0 |
| 20260505062909 | 53 | 235 | 7.0 | 9.0 | 0.00 | 0.00 | 0.00 | 83 | 1010.7 |
| 20260505062407 | 53 | 225 | 3.0 | 7.0 | 0.00 | 0.00 | 0.00 | 83 | 1010.9 |
| 20260505061903 | 53 | 235 | 6.0 | 11.0 | 0.00 | 0.00 | 0.00 | 83 | 1011.1 |
| 20260505061402 | 53 | 200 | 3.0 | 8.0 | 0.00 | 0.00 | 0.00 | 82 | 1011.0 |
| 20260505060859 | 53 | 179 | 6.0 | 13.0 | 0.00 | 0.00 | 0.00 | 82 | 1011.1 |
| 20260505060356 | 53 | 217 | 4.0 | 9.0 | 0.00 | 0.00 | 0.00 | 82 | 1010.9 |
| 20260505055852 | 53 | 226 | 7.0 | 9.0 | 0.00 | 0.00 | 0.00 | 81 | 1011.0 |
| 20260505055348 | 53 | 270 | 3.0 | 7.0 | 0.00 | 0.00 | 0.00 | 81 | 1011.0 |
| 20260505054845 | 53 | 214 | 4.0 | 6.0 | 0.00 | 0.00 | 0.00 | 81 | 1011.0 |
| 20260505054342 | 54 | 192 | 2.0 | 13.0 | 0.00 | 0.00 | 0.00 | 80 | 1010.8 |
| 20260505053841 | 54 | 270 | 4.0 | 14.0 | 0.00 | 0.00 | 0.00 | 80 | 1010.7 |
| 20260505053337 | 53 | 158 | 3.0 | 7.0 | 0.00 | 0.00 | 0.00 | 80 | 1010.7 |
| 20260505052834 | 53 | 185 | 3.0 | 9.0 | 0.00 | 0.00 | 0.00 | 80 | 1010.8 |
| 20260505052331 | 53 | 235 | 3.0 | 12.0 | 0.00 | 0.00 | 0.00 | 80 | 1010.9 |
| 20260505051828 | 54 | 222 | 7.0 | 16.0 | 0.00 | 0.00 | 0.00 | 80 | 1011.2 |
| 20260505051325 | 54 | 236 | 5.0 | 12.0 | 0.00 | 0.00 | 0.00 | 80 | 1010.8 |
| 20260505050823 | 53 | 253 | 4.0 | 13.0 | 0.00 | 0.00 | 0.00 | 79 | 1011.0 |
| 20260505050322 | 54 | 257 | 3.0 | 9.0 | 0.00 | 0.00 | 0.00 | 79 | 1011.2 |
| 20260505041752 | 54 | 267 | 4.0 | 14.0 | 0.00 | 0.00 | 0.00 | 78 | 1011.0 |
| 20260505041249 | 54 | 266 | 3.0 | 7.0 | 0.00 | 0.00 | 0.00 | 77 | 1011.0 |
| 20260505040746 | 54 | 207 | 4.0 | 8.0 | 0.00 | 0.00 | 0.00 | 77 | 1010.9 |
| 20260505040243 | 54 | 227 | 7.0 | 7.0 | 0.00 | 0.00 | 0.00 | 77 | 1011.0 |
| 20260505035740 | 54 | 236 | 5.0 | 7.0 | 0.00 | 0.00 | 0.00 | 77 | 1010.8 |
| 20260505035236 | 54 | 197 | 3.0 | 9.0 | 0.00 | 0.00 | 0.00 | 77 | 1011.0 |
| 20260505034733 | 54 | 229 | 5.0 | 6.0 | 0.00 | 0.00 | 0.00 | 76 | 1011.0 |
| 20260505034230 | 54 | 216 | 2.0 | 11.0 | 0.00 | 0.00 | 0.00 | 76 | 1011.0 |
| 20260505033727 | 54 | 210 | 4.0 | 8.0 | 0.00 | 0.00 | 0.00 | 76 | 1011.0 |
| 20260505033225 | 54 | 229 | 3.0 | 9.0 | 0.00 | 0.00 | 0.00 | 75 | 1011.0 |
| 20260505032722 | 54 | 207 | 6.0 | 10.0 | 0.00 | 0.00 | 0.00 | 75 | 1011.0 |
| 20260505032218 | 54 | 250 | 3.0 | 8.0 | 0.00 | 0.00 | 0.00 | 75 | 1010.8 |
| 20260505031716 | 54 | 201 | 6.0 | 14.0 | 0.00 | 0.00 | 0.00 | 74 | 1011.0 |
| 20260505031212 | 54 | 205 | 4.0 | 13.0 | 0.00 | 0.00 | 0.00 | 74 | 1011.1 |
| 20260505030709 | 55 | 226 | 3.0 | 10.0 | 0.00 | 0.00 | 0.00 | 74 | 1011.2 |
| 20260505030205 | 54 | 221 | 4.0 | 15.0 | 0.00 | 0.00 | 0.00 | 74 | 1011.0 |
| 20260505025700 | 55 | 183 | 3.0 | 14.0 | 0.00 | 0.00 | 0.00 | 74 | 1011.1 |
| 20260505025159 | 55 | 201 | 3.0 | 11.0 | 0.00 | 0.00 | 0.00 | 73 | 1011.0 |
| 20260505024657 | 55 | 209 | 5.0 | 11.0 | 0.00 | 0.00 | 0.00 | 73 | 1011.1 |
| 20260505024153 | 55 | 212 | 3.0 | 11.0 | 0.00 | 0.00 | 0.00 | 73 | 1011.0 |
| 20260505023651 | 55 | 180 | 3.0 | 11.0 | 0.00 | 0.00 | 0.00 | 73 | 1010.9 |
| 20260505023148 | 55 | 246 | 2.0 | 6.0 | 0.00 | 0.00 | 0.00 | 73 | 1011.0 |
| 20260505022646 | 55 | 210 | 5.0 | 14.0 | 0.00 | 0.00 | 0.00 | 73 | 1011.0 |
| 20260505022143 | 55 | 154 | 3.0 | 11.0 | 0.00 | 0.00 | 0.00 | 73 | 1011.3 |
| 20260505021639 | 55 | 199 | 4.0 | 9.0 | 0.00 | 0.00 | 0.00 | 73 | 1011.0 |
| 20260505021136 | 55 | 215 | 1.0 | 10.0 | 0.00 | 0.00 | 0.00 | 73 | 1011.0 |
| 20260505020631 | 55 | 234 | 4.0 | 14.0 | 0.00 | 0.00 | 0.00 | 73 | 1011.2 |
| 20260505020128 | 55 | 222 | 5.0 | 17.0 | 0.00 | 0.00 | 0.00 | 72 | 1010.8 |
| 20260505015625 | 55 | 203 | 6.0 | 12.0 | 0.00 | 0.00 | 0.00 | 72 | 1011.0 |
| 20260505015122 | 56 | 221 | 6.0 | 11.0 | 0.00 | 0.00 | 0.00 | 72 | 1011.0 |
| 20260505014618 | 56 | 223 | 11.0 | 19.0 | 0.00 | 0.00 | 0.00 | 71 | 1011.0 |
| 20260505014115 | 56 | 229 | 9.0 | 14.0 | 0.00 | 0.00 | 0.00 | 71 | 1010.8 |
| 20260505013613 | 56 | 222 | 7.0 | 9.0 | 0.00 | 0.00 | 0.00 | 71 | 1010.8 |
| 20260505013110 | 56 | 206 | 1.0 | 13.0 | 0.00 | 0.00 | 0.00 | 71 | 1010.7 |
| 20260505012608 | 56 | 244 | 4.0 | 16.0 | 0.00 | 0.00 | 0.00 | 71 | 1010.8 |
| 20260505012105 | 56 | 191 | 5.0 | 12.0 | 0.00 | 0.00 | 0.00 | 70 | 1010.8 |
| 20260505011600 | 57 | 236 | 8.0 | 16.0 | 0.00 | 0.00 | 0.00 | 69 | 1010.5 |
| 20260505011058 | 57 | 211 | 4.0 | 13.0 | 0.00 | 0.00 | 0.00 | 68 | 1010.8 |
| 20260505010558 | 57 | 224 | 11.0 | 13.0 | 0.00 | 0.00 | 0.00 | 68 | 1010.4 |
| 20260505010055 | 57 | 158 | 7.0 | 17.0 | 0.00 | 0.00 | 0.00 | 67 | 1010.4 |
| 20260505005552 | 57 | 235 | 3.0 | 11.0 | 0.00 | 0.00 | 0.00 | 66 | 1010.2 |
| 20260505005049 | 57 | 216 | 5.0 | 14.0 | 0.00 | 0.00 | 0.00 | 65 | 1010.1 |
| 20260505004546 | 57 | 240 | 3.0 | 17.0 | 0.00 | 0.00 | 0.00 | 64 | 1010.2 |
| 20260505004043 | 57 | 233 | 4.0 | 16.0 | 0.00 | 0.00 | 0.00 | 63 | 1009.8 |
| 20260505003540 | 57 | 226 | 4.0 | 10.0 | 0.00 | 0.00 | 0.00 | 62 | 1009.9 |
| 20260505003037 | 58 | 229 | 5.0 | 16.0 | 0.00 | 0.00 | 0.00 | 61 | 1009.8 |
| 20260505002537 | 58 | 209 | 3.0 | 9.0 | 0.00 | 0.00 | 0.00 | 61 | 1009.6 |
| 20260505002037 | 58 | 240 | 10.0 | 13.0 | 0.00 | 0.00 | 0.00 | 59 | 1009.4 |
| 20260505001534 | 58 | 214 | 3.0 | 11.0 | 0.00 | 0.00 | 0.00 | 58 | 1009.5 |
| 20260505001031 | 58 | 219 | 3.0 | 14.0 | 0.00 | 0.00 | 0.00 | 58 | 1009.5 |
| 20260505000528 | 59 | 232 | 6.0 | 16.0 | 0.00 | 0.00 | 0.00 | 57 | 1009.3 |
| 20260505000026 | 59 | 168 | 2.0 | 15.0 | 0.00 | 0.00 | 0.00 | 57 | 1009.2 |
| 20260504235522 | 59 | 152 | 7.0 | 22.0 | 0.00 | 0.00 | 0.00 | 56 | 1009.1 |
| 20260504235019 | 59 | 220 | 7.0 | 15.0 | 0.00 | 0.00 | 0.00 | 56 | 1009.2 |
| 20260504234516 | 59 | 243 | 6.0 | 9.0 | 0.00 | 0.00 | 0.00 | 56 | 1009.1 |
| 20260504234013 | 60 | 214 | 0.0 | 13.0 | 0.00 | 0.00 | 0.00 | 54 | 1009.1 |
| 20260504233508 | 60 | 230 | 10.0 | 13.0 | 0.00 | 0.00 | 0.00 | 54 | 1009.1 |
| 20260504233006 | 60 | 220 | 6.0 | 10.0 | 0.00 | 0.00 | 0.00 | 54 | 1009.2 |
| 20260504232502 | 60 | 214 | 6.0 | 13.0 | 0.00 | 0.00 | 0.00 | 53 | 1009.1 |
| 20260504232000 | 60 | 189 | 5.0 | 19.0 | 0.00 | 0.00 | 0.00 | 53 | 1008.8 |
| 20260504231456 | 61 | 205 | 5.0 | 8.0 | 0.00 | 0.00 | 0.00 | 53 | 1008.8 |
| 20260504230952 | 61 | 173 | 4.0 | 17.0 | 0.00 | 0.00 | 0.00 | 52 | 1008.6 |
| 20260504230449 | 61 | 203 | 5.0 | 6.0 | 0.00 | 0.00 | 0.00 | 52 | 1008.5 |
| 20260504225948 | 62 | 161 | 7.0 | 9.0 | 0.00 | 0.00 | 0.00 | 51 | 1008.4 |
| 20260504225444 | 62 | 200 | 8.0 | 13.0 | 0.00 | 0.00 | 0.00 | 51 | 1008.4 |
| 20260504224942 | 62 | 185 | 11.0 | 13.0 | 0.00 | 0.00 | 0.00 | 50 | 1008.3 |
| 20260504224438 | 62 | 217 | 6.0 | 15.0 | 0.00 | 0.00 | 0.00 | 50 | 1008.1 |
| 20260504223936 | 63 | 227 | 3.0 | 13.0 | 0.00 | 0.00 | 0.00 | 51 | 1008.2 |
| 20260504223431 | 63 | 198 | 6.0 | 13.0 | 0.00 | 0.00 | 0.00 | 50 | 1008.1 |
| 20260504222927 | 64 | 203 | 9.0 | 17.0 | 0.00 | 0.00 | 0.00 | 49 | 1008.0 |
| 20260504222425 | 64 | 202 | 3.0 | 24.0 | 0.00 | 0.00 | 0.00 | 49 | 1008.0 |
| 20260504221923 | 64 | 183 | 0.0 | 7.0 | 0.00 | 0.00 | 0.00 | 49 | 1008.1 |
| 20260504221419 | 65 | 190 | 2.0 | 11.0 | 0.00 | 0.00 | 0.00 | 48 | 1007.9 |
| 20260504220916 | 65 | 232 | 9.0 | 12.0 | 0.00 | 0.00 | 0.00 | 48 | 1007.9 |
| 20260504220413 | 65 | 166 | 4.0 | 10.0 | 0.00 | 0.00 | 0.00 | 47 | 1007.9 |
| 20260504215910 | 66 | 233 | 6.0 | 16.0 | 0.00 | 0.00 | 0.00 | 46 | 1008.2 |
| 20260504215406 | 66 | 294 | 13.0 | 14.0 | 0.00 | 0.00 | 0.00 | 46 | 1007.8 |
| 20260504214903 | 66 | 228 | 4.0 | 11.0 | 0.00 | 0.00 | 0.00 | 46 | 1008.0 |
| 20260504214359 | 66 | 241 | 5.0 | 11.0 | 0.00 | 0.00 | 0.00 | 45 | 1007.8 |
| 20260504213856 | 67 | 181 | 6.0 | 12.0 | 0.00 | 0.00 | 0.00 | 45 | 1007.8 |
| 20260504213352 | 66 | 168 | 1.0 | 16.0 | 0.00 | 0.00 | 0.00 | 45 | 1007.9 |
| 20260504212850 | 67 | 237 | 11.0 | 15.0 | 0.00 | 0.00 | 0.00 | 44 | 1007.6 |
| 20260504212346 | 67 | 188 | 2.0 | 13.0 | 0.00 | 0.00 | 0.00 | 43 | 1007.7 |
| 20260504211844 | 67 | 272 | 5.0 | 9.0 | 0.00 | 0.00 | 0.00 | 42 | 1007.7 |
| 20260504211339 | 68 | 226 | 6.0 | 9.0 | 0.00 | 0.00 | 0.00 | 41 | 1007.6 |
| 20260504210837 | 68 | 252 | 4.0 | 10.0 | 0.00 | 0.00 | 0.00 | 41 | 1007.5 |
| 20260504210334 | 68 | 163 | 3.0 | 13.0 | 0.00 | 0.00 | 0.00 | 41 | 1007.6 |
| 20260504205831 | 68 | 170 | 4.0 | 13.0 | 0.00 | 0.00 | 0.00 | 41 | 1007.6 |
| 20260504205329 | 68 | 198 | 2.0 | 5.0 | 0.00 | 0.00 | 0.00 | 40 | 1007.4 |
| 20260504204827 | 69 | 188 | 5.0 | 10.0 | 0.00 | 0.00 | 0.00 | 39 | 1007.6 |
| 20260504204325 | 68 | 270 | 5.0 | 17.0 | 0.00 | 0.00 | 0.00 | 40 | 1007.4 |
| 20260504203824 | 69 | 148 | 2.0 | 12.0 | 0.00 | 0.00 | 0.00 | 40 | 1007.6 |
| 20260504203321 | 68 | 259 | 6.0 | 20.0 | 0.00 | 0.00 | 0.00 | 39 | 1007.3 |
| 20260504202816 | 68 | 177 | 10.0 | 11.0 | 0.00 | 0.00 | 0.00 | 38 | 1007.4 |
| 20260504202314 | 69 | 296 | 5.0 | 17.0 | 0.00 | 0.00 | 0.00 | 38 | 1007.5 |
| 20260504201810 | 69 | 197 | 5.0 | 14.0 | 0.00 | 0.00 | 0.00 | 38 | 1007.5 |
| 20260504201308 | 68 | 123 | 4.0 | 18.0 | 0.00 | 0.00 | 0.00 | 39 | 1007.5 |
| 20260504200805 | 70 | 288 | 2.0 | 7.0 | 0.00 | 0.00 | 0.00 | 37 | 1007.3 |
| 20260504200301 | 69 | 190 | 3.0 | 18.0 | 0.00 | 0.00 | 0.00 | 39 | 1007.5 |
| 20260504195757 | 69 | 227 | 3.0 | 15.0 | 0.00 | 0.00 | 0.00 | 38 | 1007.4 |
| 20260504195253 | 69 | 223 | 5.0 | 10.0 | 0.00 | 0.00 | 0.00 | 37 | 1007.7 |
| 20260504194750 | 69 | 247 | 5.0 | 17.0 | 0.00 | 0.00 | 0.00 | 37 | 1007.5 |
| 20260504194247 | 69 | 217 | 6.0 | 27.0 | 0.00 | 0.00 | 0.00 | 37 | 1007.3 |
| 20260504193743 | 71 | 228 | 5.0 | 10.0 | 0.00 | 0.00 | 0.00 | 38 | 1007.3 |
| 20260504193240 | 69 | 212 | 7.0 | 19.0 | 0.00 | 0.00 | 0.00 | 37 | 1007.5 |
| 20260504192739 | 70 | 201 | 10.0 | 12.0 | 0.00 | 0.00 | 0.00 | 36 | 1007.6 |
| 20260504192237 | 69 | 235 | 4.0 | 21.0 | 0.00 | 0.00 | 0.00 | 37 | 1007.6 |
| 20260504191735 | 70 | 212 | 7.0 | 13.0 | 0.00 | 0.00 | 0.00 | 37 | 1007.4 |
| 20260504191232 | 69 | 194 | 4.0 | 26.0 | 0.00 | 0.00 | 0.00 | 36 | 1007.6 |
| 20260504190726 | 71 | 160 | 7.0 | 20.0 | 0.00 | 0.00 | 0.00 | 35 | 1007.3 |
| 20260504190224 | 72 | 225 | 3.0 | 9.0 | 0.00 | 0.00 | 0.00 | 33 | 1007.5 |
| 20260504185720 | 72 | 141 | 4.0 | 7.0 | 0.00 | 0.00 | 0.00 | 32 | 1007.7 |
| 20260504185217 | 71 | 190 | 5.0 | 20.0 | 0.00 | 0.00 | 0.00 | 32 | 1007.6 |
| 20260504184713 | 71 | 240 | 10.0 | 17.0 | 0.00 | 0.00 | 0.00 | 31 | 1007.7 |
| 20260504184209 | 71 | 172 | 3.0 | 15.0 | 0.00 | 0.00 | 0.00 | 33 | 1007.6 |
| 20260504183705 | 71 | 212 | 2.0 | 19.0 | 0.00 | 0.00 | 0.00 | 33 | 1007.7 |
| 20260504183202 | 71 | 283 | 5.0 | 15.0 | 0.00 | 0.00 | 0.00 | 31 | 1007.8 |
| 20260504182700 | 70 | 261 | 4.0 | 19.0 | 0.00 | 0.00 | 0.00 | 32 | 1008.0 |
| 20260504182157 | 71 | 197 | 6.0 | 17.0 | 0.00 | 0.00 | 0.00 | 32 | 1008.2 |
| 20260504181655 | 70 | 239 | 6.0 | 22.0 | 0.00 | 0.00 | 0.00 | 31 | 1007.8 |
| 20260504181152 | 70 | 180 | 3.0 | 18.0 | 0.00 | 0.00 | 0.00 | 32 | 1007.9 |
| 20260504180651 | 69 | 237 | 7.0 | 22.0 | 0.00 | 0.00 | 0.00 | 31 | 1008.1 |
| 20260504180149 | 70 | 172 | 9.0 | 14.0 | 0.00 | 0.00 | 0.00 | 31 | 1008.1 |
| 20260504175646 | 71 | 92 | 6.0 | 11.0 | 0.00 | 0.00 | 0.00 | 32 | 1007.9 |
| 20260504175143 | 70 | 207 | 7.0 | 15.0 | 0.00 | 0.00 | 0.00 | 33 | 1007.8 |
| 20260504174641 | 70 | 218 | 19.0 | 19.0 | 0.00 | 0.00 | 0.00 | 32 | 1007.8 |
| 20260504174137 | 70 | 225 | 11.0 | 17.0 | 0.00 | 0.00 | 0.00 | 32 | 1007.5 |
| 20260504173635 | 69 | 225 | 8.0 | 22.0 | 0.00 | 0.00 | 0.00 | 32 | 1007.9 |
| 20260504173132 | 70 | 246 | 9.0 | 20.0 | 0.00 | 0.00 | 0.00 | 32 | 1007.6 |
| 20260504172628 | 69 | 258 | 4.0 | 15.0 | 0.00 | 0.00 | 0.00 | 33 | 1007.8 |
| 20260504172125 | 70 | 251 | 5.0 | 21.0 | 0.00 | 0.00 | 0.00 | 32 | 1008.1 |
| 20260504171621 | 71 | 226 | 6.0 | 13.0 | 0.00 | 0.00 | 0.00 | 33 | 1007.8 |
| 20260504171119 | 70 | 222 | 6.0 | 21.0 | 0.00 | 0.00 | 0.00 | 33 | 1007.8 |
| 20260504170615 | 70 | 200 | 5.0 | 14.0 | 0.00 | 0.00 | 0.00 | 34 | 1007.9 |
| 20260504170113 | 70 | 307 | 2.0 | 12.0 | 0.00 | 0.00 | 0.00 | 33 | 1008.0 |
| 20260504150958 | 67 | 286 | 2.0 | 9.0 | 0.00 | 0.00 | 0.00 | 36 | 1009.4 |
| 20260504150455 | 67 | 264 | 5.0 | 11.0 | 0.00 | 0.00 | 0.00 | 36 | 1009.3 |
| 20260504140921 | 64 | 246 | 4.0 | 11.0 | 0.00 | 0.00 | 0.00 | 41 | 1010.3 |
| 20260504140418 | 64 | 270 | 1.0 | 11.0 | 0.00 | 0.00 | 0.00 | 42 | 1010.3 |
| 20260504130343 | 60 | 203 | 5.0 | 6.0 | 0.00 | 0.00 | 0.00 | 44 | 1010.7 |
| 20260504120306 | 55 | 248 | 4.0 | 14.0 | 0.00 | 0.00 | 0.00 | 51 | 1011.1 |
| 20260504110230 | 49 | 225 | 2.0 | 7.0 | 0.00 | 0.00 | 0.00 | 59 | 1011.2 |
| 20260504100153 | 47 | 201 | 5.0 | 7.0 | 0.00 | 0.00 | 0.00 | 59 | 1011.0 |